STARLINK-3907, 52501

Orbit data source: Space-Track

STARLINK-3907, 52501 is a payload satellite owned by SpaceX/Seattle (US) in LEO that was launched on Fri, 06 May 2022 UTC via an FALCON 9 launch vehicle from the Air Force Eastern Test Range (AFETR). Payload-class satellites include a variety of spacecraft equipped with specific instruments for various scientific and technological missions. These include communications satellites like Starlink; space stations such as the ISS; scientific satellites like the Hubble; Earth observation satellites from companies like Planet Labs, Umbra, and HawkEye 360; GPS; miniature CubeSats for education and research; and military/defense satellites.

Loading next visibility...
Identifier
52501, 2022-049BC
Orbit
LEO
Country
Flag of USUS
Related business
Manufacturer
SpaceX/Seattle
Mission
Operational Commercial Communications
Bus & Motor
STARLINK, Unknown motor
Mass
297 kg wet, ~220 kg dry
Launch date (UTC)
2022-05-06 (4 years ago)
Launch vehicle
FALCON 9
Launch site
Air Force Eastern Test Range (AFETR)
Object type
Payload
Rocket body
Debris
Shape & HBR
Box + 1 Pan, 10.1 m
Radar Cross Section
13.562 m², Large (>1 m²)

Expand to show TLE details & history
Last TLE update: 22 hours ago

TLE from 22 hours ago
0 STARLINK-3907
1 52501U 22049BC  25349.59990320  .00006100  00000-0  40102-3 0  9997
2 52501  53.2181  66.4108 0001227  92.5342 267.5791 15.08838870199708
Epoch: 2025-12-15T14:23Z
TLE epoch observation values (Epoch: 2025-12-15T14:23:51.636Z)
Latitude
0.00001°
Longitude
125.94951°
Altitude
540.68 km
Speed
7.593 km/s
True Right ascension
04h 25m 38s
True Declination
0° 00' 00"
Sunlit
Object was in full shadow at epoch
Visualization orbit readout
Latitude
Unknown
Longitude
Unknown
Altitude
Unknown
Speed
Unknown
Apparent Right ascension
Unknown
Apparent Declination
Unknown
Sunlit
N/A
Visualization observer readout
Local Sidereal Time
10:50:19
Azimuth
Unknown
Elevation
Unknown
Doppler factor
Unknown
Orbital elements
Apogee altitude
540.841 km
Perigee altitude
539.143 km
Semi-major axis
6,918.129 km
Eccentricity
0.00012
Inclination
53.2181°
RAAN
66.4108°
Arg. of periapsis
92.5342°
True anomaly
267.56505°
Mean anomaly
267.5791°
Eccentric anomaly
267.57208°
Mean motion
3.7719 °/min
Orbital period
95.44 mins
BSTAR
0.00040102
Loading maneuver chart data...
Computing Atmospheric mass density...
Loading historical data...
Loading historical data...
Loading historical data...
Loading historical data...
Loading historical data...
Loading historical data...
Loading historical data...

Documentation

Showing up to 5 results
|